Home   Weather   Bautzen   Past weeks

Flag for Germany Past Weather in Bautzen, Saxony, Germany — Yesterday and Last 2 Weeks

Now
48 °F

Sunny.


Feels Like: 42 °F
Forecast: 45 / 59 °F
Wind: 17 mph from East

Location: Dresden-Klotzsche

Current Time: May 1, 2017 at 8:26:03 am

Latest Report: May 1, 2017 at 7:50 am


Visibility: 10 mi

Pressure: 29.89 "Hg

Humidity: 62%

Dew Point: 36 °F

Location of BautzenLocation

Past Weather in Bautzen — Graph

°F

Bautzen Temperature Yesterday

Maximum temperature yesterday: 57 °F (at 3:50 pm)
Minimum temperature yesterday: 34 °F (at 4:20 am)
Average temperature yesterday: 47 °F

High & Low Weather Summary for the Past Weeks

 TemperatureHumidityPressure
High57 °F (Apr 24, 4:20 pm)100% (Apr 18, 4:50 am)30.54 "Hg (Apr 18, 4:50 am)
Low28 °F (Apr 19, 5:20 am)38% (Apr 24, 3:20 pm)29.59 "Hg (Apr 25, 5:50 am)
Average42 °F71%30.05 "Hg
* Reported Apr 16 7:20 am — May 1 7:20 am, Bautzen, Weather by CustomWeather, © 2017

Note: Actual official high and low records may vary slightly from our data, if they occured in-between our weather recording intervals... More about our weather records

Advertising

Bautzen Weather History for the Previous 24 Hours

Scroll right to see more
 ConditionsComfort  
Time TempWeatherWind HumidityBarometerVisibility
7:20 am
Mon, May 1
46 °FSunny.17 mph66%29.89 "Hg10 mi
6:50 am45 °FSunny.15 mph71%29.86 "Hg10 mi
6:20 am43 °FSunny.15 mph76%29.89 "Hg10 mi
5:50 am41 °FSunny.13 mph76%29.89 "Hg10 mi
5:20 am41 °FClear.14 mph76%29.89 "Hg10 mi
4:50 am41 °FClear.13 mph76%29.89 "Hg10 mi
4:20 am41 °FClear.15 mph81%29.92 "Hg10 mi
3:50 am43 °FClear.13 mph71%29.92 "Hg10 mi
3:20 am43 °FClear.14 mph71%29.92 "Hg10 mi
2:20 am43 °FClear.12 mph76%29.95 "Hg10 mi
1:50 am43 °FClear.12 mph71%29.95 "Hg10 mi
12:50 am45 °FClear.14 mph71%29.95 "Hg10 mi
12:20 am45 °FClear.14 mph71%29.95 "Hg10 mi
11:50 pm
Sun, Apr 30
46 °FClear.14 mph66%29.95 "Hg10 mi
11:20 pm46 °FClear.14 mph66%29.95 "Hg10 mi
10:50 pm46 °FClear.15 mph66%29.95 "Hg10 mi
10:20 pm46 °FClear.16 mph66%29.95 "Hg10 mi
9:50 pm48 °FClear.16 mph62%29.95 "Hg10 mi
9:20 pm48 °FClear.17 mph62%29.95 "Hg10 mi
8:50 pm50 °FClear.17 mph54%29.95 "Hg10 mi
8:20 pm50 °FSunny.17 mph58%29.98 "Hg10 mi
7:50 pm52 °FSunny.18 mph54%29.98 "Hg10 mi
7:20 pm54 °FSunny.20 mph51%29.98 "Hg10 mi
6:50 pm54 °FSunny.20 mph51%29.98 "Hg10 mi
6:20 pm55 °FSunny.22 mph44%29.98 "Hg10 mi
5:50 pm55 °FPassing clouds.20 mph47%29.98 "HgN/A
5:20 pm55 °FSunny.21 mph44%30.01 "Hg10 mi
4:50 pm57 °FSunny.20 mph41%30.01 "Hg10 mi
4:20 pm57 °FPassing clouds.18 mph41%30.01 "HgN/A
3:50 pm57 °FSunny.16 mph39%30.01 "Hg10 mi
3:20 pm55 °FPassing clouds.15 mph44%30.04 "HgN/A
2:50 pm55 °FPassing clouds.17 mph41%30.04 "HgN/A
2:20 pm55 °FSunny.18 mph44%30.04 "Hg10 mi
1:50 pm55 °FPassing clouds.15 mph38%30.07 "HgN/A
1:20 pm55 °FPassing clouds.14 mph38%30.07 "HgN/A
12:50 pm54 °FPassing clouds.14 mph41%30.09 "HgN/A
12:20 pm54 °FPassing clouds.12 mph44%30.09 "HgN/A
11:50 am54 °FPassing clouds.12 mph44%30.09 "HgN/A
11:20 am52 °FPassing clouds.12 mph44%30.09 "HgN/A
10:50 am52 °FPassing clouds.9 mph41%30.12 "HgN/A
10:20 am50 °FPassing clouds.12 mph47%30.12 "HgN/A
9:50 am48 °FPassing clouds.12 mph46%30.12 "HgN/A
9:20 am48 °FPassing clouds.10 mph54%30.12 "HgN/A
8:50 am46 °FSunny.10 mph53%30.12 "Hg10 mi
8:20 am45 °FSunny.7 mph61%30.12 "Hg10 mi
Weather by CustomWeather, © 2017

See weather overviewHow to use our weather pages